Regional Weather Roundup
Issued by NWS Kansas City/Pleasant Hill, MO

Home | Current Version | Previous Version | Text Only | Print | Product List | Glossary On
Versions: 1 2 3 4 5 6 7 8 9 10 11 12 13 14 15 16 17 18 19 20 21 22 23 24 25 26 27 28 29 30 31 32 33 34 35 36 37 38 39 40 41 42 43 44 45 46 47 48 49 50
000
ASUS43 KEAX 070211
RWREAX

WEATHER ROUNDUP FOR EASTERN KANSAS AND NORTHWEST MISSOURI
NATIONAL WEATHER SERVICE KANSAS CITY/PLEASANT HILL MO
800 PM CST FRI MAR 06 2015

KSZ040-057-103>105-MOZ028-029-037-043-070300-
...KANSAS CITY METROPOLITAN AREA...

CITY           SKY/WX    TMP DP  RH WIND       PRES   REMARKS
K.C. INTL      CLEAR     43  21  41 S10       30.20S
K.C. DOWNTOWN  CLEAR     52  24  33 SW6       30.20S
LEES SUMMIT    CLEAR     48  28  46 S9        30.22S
OLATHE - IXD   CLEAR     46  27  47 S12       30.23S
OLATHE - OJC   CLEAR     47  26  44 SW7       30.22S
LAWRENCE       CLEAR     48  26  42 SW12      30.21S

$$

MOZ001>008-011>017-020>025-030>033-038>040-044>046-053-054-070300-
...NORTHERN AND CENTRAL MISSOURI...

CITY           SKY/WX    TMP DP  RH WIND       PRES   REMARKS
ST. JOSEPH     CLEAR     40  22  48 S6        30.18S
MOSBY            N/A     37  25  60 CALM      30.21S
WARRENSBURG    CLEAR     43  30  61 S8        30.25S
WHITEMAN AFB   CLEAR     38  29  70 S13       30.24S WCI  30
CLINTON        CLEAR     45  32  61 S10       30.28S
SEDALIA        CLEAR     44  29  55 SW10      30.27S
WARSAW         NOT AVBL
MARSHALL       CLEAR     46  32  57 S8        30.25S
CHILLICOTHE      N/A     42  25  50 S5        30.21S
MOBERLY        CLEAR     43  28  56 S8        30.24S
KIRKSVILLE     CLEAR     43  27  53 SW9       30.19S

$$

MOZ041-047>049-056>058-063>065-088>090-097-070300-
...EASTERN AND SOUTHERN MISSOURI...

CITY           SKY/WX    TMP DP  RH WIND       PRES   REMARKS
ST. LOUIS INTL CLEAR     35  23  61 SE9       30.28R WCI  28
SPIRIT OF STL  CLEAR     43  24  47 SW8       30.27S
COLUMBIA       CLEAR     42  28  57 SW8       30.26S
JEFFERSON CITY CLEAR     46  26  45 CALM      30.28R
MEXICO         CLEAR     43  34  70 SW8       30.25R
HANNIBAL       CLEAR     43  27  52 SW9       30.22F
ROLLA          CLEAR     40  26  57 SW12      30.28R WCI  33
OSAGE BEACH    CLEAR     45  27  49 SW8       30.30S
SPRINGFIELD    CLEAR     39  27  62 S10       30.33R WCI  32
BRANSON        CLEAR     39  25  56 CALM      30.37R
NEVADA         CLEAR     45  30  57 S17G23    30.31S
JOPLIN         PTCLDY    45  26  47 S13       30.34R
WEST PLAINS    CLEAR     37  22  54 S6        30.36S WCI  32

$$

IAZ060-094-KSZ022-034>040-054-083-096-NEZ052-066-093-070300-
...KANSAS...SOUTHEAST NEBRASKA AND IOWA...

CITY           SKY/WX    TMP DP  RH WIND       PRES   REMARKS
TOPEKA         CLEAR     50  26  39 S6        30.21R
MANHATTAN      CLEAR     49  26  41 SW13      30.19R
EMPORIA        CLEAR     44  28  53 S13       30.23R
CHANUTE        CLEAR     41  27  57 S10       30.30R WCI  35
WICHITA        CLEAR     47  29  49 S14       30.26R
OMAHA          MOCLDY    44  20  38 N5        30.11R
LINCOLN        MOCLDY    44  18  35 S3        30.13S
FALLS CITY     CLEAR     44  18  35 SW8       30.15S
LAMONI         CLEAR     42  25  50 SW12      30.13F
DES MOINES     CLOUDY    47  22  37 CALM      30.12R

$$



USA.gov is the U.S. government's official web portal to all federal, state and local government web resources and services.